Southbury, CT

1:40 AM EST on February 23, 2017 (GMT -0500)
Waterbury-Oxford

Weather History for KOXC - July, 2013

Change the Weather History Date:

Saturday, July 13, 2013

  Actual Average Record
Temperature  
Mean Temperature 68 °F -  
Max Temperature 75 °F 76 °F 84 °F (1997)
Min Temperature 62 °F 58 °F 46 °F (2001)
Cooling Degree Days 4    
Growing Degree Days 18 (Base 50)    
Moisture  
Dew Point 63 °F    
Average Humidity 83    
Maximum Humidity 88    
Minimum Humidity 77    
Precipitation  
Precipitation 0.00 in - - ()
Sea Level Pressure  
Sea Level Pressure 30.27 in    
Wind  
Wind Speed 7 mph (East)    
Max Wind Speed 10 mph    
Max Gust Speed -    
Visibility 7 miles    
Events Rain    
Averages and records for this station are not official NWS values.
T = Trace of Precipitation, MM = Missing Value Source: NWS Daily Summary

Daily Weather History Graph

Daily Weather History Graph

Search for Another Location

Airport or City:

Trip Planner

Search our weather history database for the weather conditions in past years. The results will help you decide how hot, cold, wet, or windy it might be!

Date:

Astronomy

Jul. 13, 2013 Rise Set
Actual Time 5:30 AM EDT 8:25 PM EDT
Civil Twilight 4:57 AM EDT 8:58 PM EDT
Nautical Twilight 4:15 AM EDT 9:40 PM EDT
Astronomical Twilight 3:26 AM EDT 10:29 PM EDT
Moon 10:48 AM EDT (7/13) 11:00 PM EDT (7/13)
Length of Visible Light 16h 01m
Length of Day
14h 55m
Waxing Crescent, 25% of the Moon is Illuminated
Jul 13
Waxing Crescent
Jul 15
First Quarter
Jul 22
Full
Jul 29
Last Quarter
Aug 6
New

Hourly Weather History & Observations

Time (EDT) Temp. Dew Point Humidity Pressure Visibility Wind Dir Wind Speed Gust Speed Precip Events Conditions
12:15 AM 62.6 °F 57.2 °F 82% 30.19 in 6.0 mi ENE 9.2 mph - N/A   Overcast
12:35 AM 62.6 °F 57.2 °F 82% 30.19 in 10.0 mi NE 9.2 mph - N/A   Overcast
12:55 AM 62.6 °F 57.2 °F 82% 30.19 in 10.0 mi NE 10.4 mph - N/A   Overcast
1:15 AM 62.6 °F 57.2 °F 82% 30.19 in 10.0 mi ENE 6.9 mph - N/A   Overcast
1:35 AM 62.6 °F 57.2 °F 82% 30.19 in 10.0 mi NE 8.1 mph - N/A   Overcast
1:55 AM 64.4 °F 57.2 °F 77% 30.19 in 10.0 mi NE 6.9 mph - N/A   Overcast
2:15 AM 64.4 °F 57.2 °F 77% 30.20 in 10.0 mi ENE 5.8 mph - N/A   Overcast
2:35 AM 64.4 °F 57.2 °F 77% 30.20 in 10.0 mi ENE 5.8 mph - N/A   Overcast
2:55 AM 64.4 °F 57.2 °F 77% 30.20 in 10.0 mi ENE 6.9 mph - N/A   Overcast
3:15 AM 64.4 °F 57.2 °F 77% 30.20 in 10.0 mi ENE 10.4 mph - N/A   Overcast
3:35 AM 64.4 °F 57.2 °F 77% 30.20 in 10.0 mi ENE 8.1 mph - N/A   Overcast
3:55 AM 64.4 °F 57.2 °F 77% 30.20 in 10.0 mi ENE 8.1 mph - N/A   Overcast
4:15 AM 64.4 °F 57.2 °F 77% 30.20 in 10.0 mi ENE 8.1 mph - N/A   Overcast
4:35 AM 64.4 °F 57.2 °F 77% 30.21 in 10.0 mi East 5.8 mph - N/A   Overcast
4:55 AM 64.4 °F 57.2 °F 77% 30.22 in 10.0 mi ENE 4.6 mph - N/A   Overcast
5:15 AM 64.4 °F 57.2 °F 77% 30.22 in 10.0 mi ENE 8.1 mph - N/A   Overcast
5:35 AM 64.4 °F 59.0 °F 83% 30.23 in 10.0 mi ENE 5.8 mph - N/A   Overcast
5:55 AM 64.4 °F 59.0 °F 83% 30.23 in 7.0 mi East 4.6 mph - N/A   Overcast
6:45 AM 64.4 °F 59.0 °F 83% 30.25 in 6.0 mi ENE 5.8 mph - N/A   Overcast
7:45 AM 64.4 °F 60.8 °F 88% 30.26 in 3.0 mi ENE 6.9 mph - N/A Rain Light Rain
8:45 AM 64.4 °F 60.8 °F 88% 30.29 in 3.0 mi ENE 9.2 mph - N/A Rain Light Rain
9:45 AM 66.2 °F 62.6 °F 88% 30.30 in 3.0 mi East 8.1 mph - N/A Rain Light Rain
10:45 AM 66.2 °F 62.6 °F 88% 30.30 in 6.0 mi East 5.8 mph - N/A   Overcast
11:45 AM 68.0 °F 64.4 °F 88% 30.31 in 4.0 mi ENE 8.1 mph - N/A   Overcast
12:45 PM 71.6 °F 66.2 °F 83% 30.32 in 5.0 mi ESE 6.9 mph - N/A   Overcast
1:45 PM 73.4 °F 69.8 °F 88% 30.31 in 5.0 mi SSE 6.9 mph - N/A   Overcast
2:45 PM 73.4 °F 68.0 °F 83% 30.32 in 5.0 mi ESE 6.9 mph - N/A   Overcast
3:45 PM 71.6 °F 66.2 °F 83% 30.32 in 5.0 mi ENE 5.8 mph - N/A   Overcast
4:45 PM 73.4 °F 68.0 °F 83% 30.31 in 6.0 mi NE 4.6 mph - N/A   Overcast
5:45 PM 73.4 °F 69.8 °F 88% 30.31 in 6.0 mi East 4.6 mph - N/A   Mostly Cloudy
6:45 PM 75.2 °F 69.8 °F 83% 30.32 in 6.0 mi South 3.5 mph - N/A   Overcast
7:45 PM 75.2 °F 69.8 °F 83% 30.32 in 6.0 mi SSE 4.6 mph - N/A   Overcast
8:55 PM 73.4 °F 69.8 °F 88% 30.33 in 10.0 mi SSE 3.5 mph - N/A   Overcast
9:15 PM 73.4 °F 69.8 °F 88% 30.33 in 10.0 mi SE 3.5 mph - N/A   Overcast
9:35 PM 73.4 °F 69.8 °F 88% 30.33 in 10.0 mi East 3.5 mph - N/A   Overcast
9:55 PM 73.4 °F 69.8 °F 88% 30.33 in 10.0 mi ESE 4.6 mph - N/A   Overcast
10:15 PM 73.4 °F 69.8 °F 88% 30.33 in 9.0 mi Calm Calm - N/A   Overcast
10:35 PM 73.4 °F 69.8 °F 88% 30.33 in 7.0 mi Calm Calm - N/A   Overcast
10:55 PM 73.4 °F 69.8 °F 88% 30.34 in 3.0 mi Calm Calm - N/A   Overcast
11:15 PM 73.4 °F 69.8 °F 88% 30.34 in 1.8 mi Calm Calm - N/A   Overcast
11:35 PM 73.4 °F 69.8 °F 88% 30.35 in 1.2 mi Calm Calm - N/A   Overcast
11:55 PM 73.4 °F 69.8 °F 88% 30.35 in 1.5 mi Calm Calm - N/A   Overcast